Regional Weather Roundup
Issued by NWS Little Rock, AR

Home | Current Version | Previous Version | Graphics & Text | Print | Product List | Glossary On
Versions: 1 2 3 4 5 6 7 8 9 10 11 12 13 14 15 16 17 18 19 20 21 22 23 24 25 26 27 28 29 30 31 32 33 34 35 36 37 38 39 40 41 42 43 44 45 46 47 48 49 50
072
ASUS44 KLZK 121505
RWRLZK

WEATHER ROUNDUP FOR ARKANSAS
NATIONAL WEATHER SERVICE LITTLE ROCK AR
900 AM CST FRI FEB 12 2016

NOTE: "FAIR" INDICATES FEW OR NO CLOUDS BELOW 12,000 FEET WITH NO
SIGNIFICANT WEATHER AND/OR OBSTRUCTIONS TO VISIBILITY.

ARZ001-003-010-029-121600-
NORTHWEST ARKANSAS

CITY           SKY/WX    TMP DP  RH WIND       PRES   REMARKS
FAYETTEVILLE   SUNNY     42  31  64 MISG      30.27R
FORT SMITH     SUNNY     42  26  53 SW3       30.29R
HARRISON       SUNNY     43  26  51 NW15      30.24R
BENTONVILLE    SUNNY     41  25  52 N9        30.28R
ROGERS         SUNNY     38  26  62 NW9       30.28R
SILOAM SPGS    SUNNY     39  25  56 NW12      30.29R
SPRINGDALE     SUNNY     41  27  56 NW9       30.28R
$$

ARZ004-005-016-121600-
NORTH CENTRAL ARKANSAS

CITY           SKY/WX    TMP DP  RH WIND       PRES   REMARKS
BATESVILLE     SUNNY     36  25  64 CALM      30.27R
FLIPPIN        SUNNY     36  21  55 CALM      30.24R
MTN HOME       SUNNY     37  27  67 VRB3      30.24R
$$

ARZ040-041-121600-
WEST CENTRAL ARKANSAS

CITY           SKY/WX    TMP DP  RH WIND       PRES   REMARKS
MENA           SUNNY     45  34  65 CALM      30.25R
MOUNT IDA      SUNNY     38  31  76 CALM      30.23R
$$

ARZ009-017-025-026-028-121600-
NORTHEAST ARKANSAS

CITY           SKY/WX    TMP DP  RH WIND       PRES   REMARKS
CORNING        FAIR      34  23  64 N5        30.26R WCI  30
JONESBORO      SUNNY     36  25  64 N3        30.24R
NEWPORT        SUNNY     36  27  70 N6        30.27R
WALNUT RIDGE   SUNNY     36  23  60 NE6       30.27R
BLYTHEVILLE    SUNNY     42  26  53 N5        30.24R
$$

ARZ022-023-033-042-044-121600-
CENTRAL ARKANSAS

CITY           SKY/WX    TMP DP  RH WIND       PRES   REMARKS
LITTLE ROCK    MOSUNNY   42  27  55 NW10      30.26R
N LITTLE ROCK  MOSUNNY   41  29  61 NW6       30.26R
SEARCY         SUNNY     37  28  70 CALM      30.27S
HOT SPRINGS    SUNNY     40  31  70 CALM      30.26R
RUSSELLVILLE   SUNNY     38  29  70 W3        30.26R
CLINTON        FAIR      34  27  75 CALM      30.26S
$$

ARZ036-121600-
EAST ARKANSAS

CITY           SKY/WX    TMP DP  RH WIND       PRES   REMARKS
WEST MEMPHIS   SUNNY     38  30  73 NW5       30.24R
$$

ARZ050-053-066-070-073-121600-
SOUTHWEST ARKANSAS

CITY           SKY/WX    TMP DP  RH WIND       PRES   REMARKS
ARKADELPHIA    FAIR      40  32  73 CALM      30.27R
CAMDEN         SUNNY     41  28  60 CALM      30.26S
TEXARKANA      SUNNY     43  29  57 NE5       30.26R
EL DORADO      SUNNY     42  29  59 CALM      30.26R
DE QUEEN       SUNNY     40  33  76 CALM      30.26R
$$

ARZ056-057-069-121600-
SOUTHEAST ARKANSAS

CITY           SKY/WX    TMP DP  RH WIND       PRES   REMARKS
PINE BLUFF     SUNNY     41  29  62 N6        30.26R
STUTTGART      SUNNY     39  28  65 N9        30.27R
MONTICELLO     SUNNY     43  30  60 NW3       30.24R

$$






USA.gov is the U.S. government's official web portal to all federal, state and local government web resources and services.